Weather History for Alesund, Norway

Change the Weather History Date:

Wednesday, November 21, 2012

  Actual Average Record
Temperature  
Mean Temperature 50 °F -  
Max Temperature 55 °F 40 °F 55 °F (2012)
Min Temperature 46 °F 36 °F 26 °F (2008)
Degree Days  
Heating Degree Days 14    
Moisture  
Dew Point 40 °F    
Average Humidity 64    
Maximum Humidity 82    
Minimum Humidity 47    
Precipitation  
Precipitation 0.00 in - - ()
Sea Level Pressure  
Sea Level Pressure 29.65 in    
Wind  
Wind Speed 12 mph ()    
Max Wind Speed 22 mph    
Max Gust Speed 36 mph    
Visibility 6.2 miles    
Events Rain    
Averages and records for this station are not official NWS values.
T = Trace of Precipitation, MM = Missing Value Source: Averaged Metar Reports

Daily Weather History Graph

Daily Weather History Graph

Search for Another Location

Airport:

Trip Planner

Search our weather history database for the weather conditions in past years. The results will help you decide how hot, cold, wet, or windy it might be!

Date:

Astronomy

Nov. 21, 2012 Rise Set
Actual Time 9:09 AM CET 3:33 PM CET
Civil Twilight 8:11 AM CET 4:31 PM CET
Nautical Twilight 7:12 AM CET 5:29 PM CET
Astronomical Twilight 6:18 AM CET 6:23 PM CET
Moon 1:36 PM CET (11/21) 12:05 AM CET (11/21)
Length of Visible Light 8h 20m
Length of Day
6h 23m
First Quarter, 59% of the Moon is Illuminated
Nov 21
First Quarter
Nov 28
Full
Dec 6
Last Quarter
Dec 13
New
Dec 20
First Quarter

Hourly Weather History & Observations

Time (CET) Temp. Windchill Dew Point Humidity Pressure Visibility Wind Dir Wind Speed Gust Speed Precip Events Conditions
12:20 AM 53.6 °F - 39.2 °F 58% 29.47 in 6.2 mi SE 15.0 mph - N/A   Mostly Cloudy
12:50 AM 51.8 °F - 41.0 °F 67% 29.47 in 6.2 mi SE 11.5 mph - N/A   Mostly Cloudy
1:00 AM 53 °F - 40 °F 51% 29.48 in - SE 13.4 mph - -  
1:20 AM 53.6 °F - 41.0 °F 62% 29.44 in 6.2 mi SSE 13.8 mph - N/A   Mostly Cloudy
1:50 AM 53.6 °F - 41.0 °F 62% 29.44 in 6.2 mi SE 12.7 mph - N/A   Mostly Cloudy
2:20 AM 55.4 °F - 42.8 °F 63% 29.47 in 6.2 mi SSW 11.5 mph - N/A Rain Light Rain
2:50 AM 55.4 °F - 42.8 °F 63% 29.47 in 6.2 mi SSW 10.4 mph - N/A   Mostly Cloudy
3:20 AM 59.0 °F - 42.8 °F 55% 29.47 in 6.2 mi South 12.7 mph - N/A   Overcast
4:20 AM 53.6 °F - 44.6 °F 72% 29.50 in 6.2 mi SW 16.1 mph - N/A   Mostly Cloudy
4:50 AM 57.2 °F - 42.8 °F 59% 29.50 in 6.2 mi SSW 13.8 mph - N/A   Partly Cloudy
5:20 AM 53.6 °F - 42.8 °F 67% 29.53 in 6.2 mi SSW 13.8 mph 25.3 mph N/A   Partly Cloudy
5:50 AM 53.6 °F - 41.0 °F 62% 29.53 in 6.2 mi SW 19.6 mph - N/A   Partly Cloudy
6:20 AM 55.4 °F - 37.4 °F 51% 29.53 in 6.2 mi SSW 15.0 mph 26.5 mph N/A   Partly Cloudy
6:50 AM 53.6 °F - 39.2 °F 58% 29.56 in 6.2 mi SSW 17.3 mph - N/A   Partly Cloudy
7:00 AM 53 °F - 41 °F 54% 29.57 in 47 mi SW 17.9 mph - -   Partly Cloudy
7:20 AM 53.6 °F - 41.0 °F 62% 29.56 in 6.2 mi SW 19.6 mph - N/A   Partly Cloudy
7:45 AM 51.8 °F - 41.0 °F 67% 29.59 in 6.2 mi SW 21.9 mph - N/A   Partly Cloudy
8:20 AM 51.8 °F - 41.0 °F 67% 29.59 in - SW 20.7 mph - N/A   Clear
9:20 AM 55.4 °F - 35.6 °F 47% 29.62 in 6.2 mi SSW 19.6 mph 35.7 mph N/A   Mostly Cloudy
9:50 AM 55.4 °F - 35.6 °F 47% 29.62 in 6.2 mi SSW 17.3 mph - N/A   Scattered Clouds
10:20 AM 53.6 °F - 39.2 °F 58% 29.65 in 6.2 mi SW 17.3 mph - N/A   Scattered Clouds
10:50 AM 51.8 °F - 42.8 °F 71% 29.65 in 6.2 mi SW 19.6 mph - N/A   Mostly Cloudy
11:20 AM 51.8 °F - 41.0 °F 67% 29.68 in 6.2 mi SW 19.6 mph - N/A Rain Light Rain Showers
11:50 AM 51.8 °F - 39.2 °F 62% 29.68 in 6.2 mi South 15.0 mph - N/A   Scattered Clouds
12:20 PM 51.8 °F - 39.2 °F 62% 29.71 in 6.2 mi South 13.8 mph - N/A   Scattered Clouds
12:50 PM 51.8 °F - 39.2 °F 62% 29.71 in 6.2 mi South 15.0 mph - N/A   Mostly Cloudy
1:00 PM 52 °F - 38 °F 49% 29.73 in 47 mi SSW 13.4 mph - -   Partly Cloudy
1:20 PM 51.8 °F - 39.2 °F 62% 29.74 in 6.2 mi South 10.4 mph - N/A   Mostly Cloudy
1:50 PM 51.8 °F - 37.4 °F 58% 29.74 in 6.2 mi South 11.5 mph - N/A   Mostly Cloudy
2:20 PM 51.8 °F - 39.2 °F 62% 29.74 in 6.2 mi SSW 12.7 mph - N/A   Mostly Cloudy
2:50 PM 51.8 °F - 39.2 °F 62% 29.74 in 6.2 mi South 11.5 mph - N/A   Mostly Cloudy
3:20 PM 51.8 °F - 39.2 °F 62% 29.77 in 6.2 mi South 10.4 mph - N/A   Mostly Cloudy
3:50 PM 50.0 °F - 41.0 °F 71% 29.77 in 6.2 mi South 10.4 mph - N/A   Mostly Cloudy
4:20 PM 50.0 °F - 41.0 °F 71% 29.77 in 6.2 mi South 10.4 mph - N/A   Mostly Cloudy
4:50 PM 50.0 °F - 41.0 °F 71% 29.77 in 6.2 mi SSW 9.2 mph - N/A   Mostly Cloudy
5:20 PM 50.0 °F - 39.2 °F 66% 29.77 in 6.2 mi SSW 9.2 mph - N/A   Mostly Cloudy
5:50 PM 50.0 °F - 39.2 °F 66% 29.77 in 6.2 mi SSW 9.2 mph - N/A   Mostly Cloudy
6:20 PM 50.0 °F - 41.0 °F 71% 29.77 in 6.2 mi SSW 6.9 mph - N/A   Mostly Cloudy
6:50 PM 50.0 °F - 41.0 °F 71% 29.77 in 6.2 mi Variable 2.3 mph - N/A   Mostly Cloudy
7:00 PM 49 °F - 40 °F 62% 29.78 in 47 mi ESE 2.2 mph - -   Partly Cloudy
7:20 PM 50.0 °F - 39.2 °F 66% 29.77 in 6.2 mi Variable 2.3 mph - N/A   Mostly Cloudy
7:50 PM 48.2 °F - 39.2 °F 71% 29.77 in 6.2 mi Calm Calm - N/A   Mostly Cloudy
8:20 PM 46.4 °F - 41.0 °F 81% 29.77 in 6.2 mi Variable 2.3 mph - N/A   Mostly Cloudy
8:50 PM 46.4 °F - 39.2 °F 76% 29.77 in 6.2 mi Variable 1.2 mph - N/A   Mostly Cloudy
9:20 PM 46.4 °F - 39.2 °F 76% 29.77 in 6.2 mi East 2.3 mph - N/A   Mostly Cloudy
9:50 PM 46.4 °F 42.9 °F 41.0 °F 81% 29.77 in 6.2 mi NE 6.9 mph - N/A   Mostly Cloudy
10:20 PM 48.2 °F - 41.0 °F 76% 29.74 in 6.2 mi NE 9.2 mph - N/A   Mostly Cloudy
10:50 PM 48.2 °F - 42.8 °F 82% 29.77 in 6.2 mi East 5.8 mph - N/A Rain Light Rain
11:50 PM 48.2 °F - 39.2 °F 71% 29.77 in 6.2 mi ESE 10.4 mph - N/A   Partly Cloudy